QPF
0.02 0.03 0.04 0.06 0.08 0.07 0.06 0.05 0.04 0.05 0.06 0.08 0.06 0.05 0.05 0.04 0.04 0.05 0.05 0.05 0.05 0.06 0.08 0.08 0.09 0.09 0.10 0.11 0.12 0.14 0.15 0.17 0.19 0.17 0.15 0.12 0.11 0.09 0.07 0.07 0.07 0.06 0.05
0.02 0.03 0.05 0.08 0.12 0.14 0.13 0.09 0.05 0.03 0.04 0.05 0.03 0.03 0.03 0.03 0.03 0.03 0.03 0.03 0.05 0.06 0.06 0.06 0.07 0.08 0.08 0.08 0.10 0.14 0.17 0.18 0.18 0.18 0.18 0.14 0.10 0.06 0.04 0.05 0.05 0.05 0.06
0.02 0.03 0.06 0.09 0.10 0.10 0.10 0.11 0.11 0.06 0.04 0.03 0.02 0.02 0.02 0.01 0.01 0.01 0.02 0.02 0.03 0.03 0.03 0.04 0.06 0.08 0.08 0.07 0.07 0.08 0.11 0.12 0.13 0.14 0.15 0.13 0.11 0.08 0.06 0.04 0.05 0.06 0.07
0.03 0.03 0.04 0.04 0.04 0.04 0.04 0.08 0.09 0.05 0.02 0.02 0.02 0.02 0.02 0.01 0.02 0.02 0.02 0.02 0.01 0.02 0.03 0.04 0.05 0.06 0.08 0.07 0.05 0.05 0.07 0.07 0.07 0.08 0.08 0.08 0.08 0.09 0.07 0.06 0.06 0.07 0.07
0.02 0.02 0.02 0.02 0.02 0.02 0.02 0.02 0.02 0.01 0.01 0.01 0.01 0.01 0.01 0.02 0.02 0.01 0.02 0.01 0.01 0.01 0.01 0.02 0.04 0.04 0.05 0.06 0.05 0.04 0.04 0.05 0.05 0.05 0.05 0.05 0.05 0.05 0.07 0.07 0.07 0.07 0.07
0.02 0.02 0.01 0.01 0.01 0.01 0.01 0.00 0.00 0.00 0.00 0.00 0.01 0.01 0.01 0.01 0.01 0.01 0.01 0.01 0.01 0.01 0.01 0.01 0.02 0.03 0.03 0.04 0.05 0.04 0.03 0.03 0.04 0.04 0.03 0.03 0.03 0.03 0.06 0.07 0.07 0.07 0.07
0.01 0.01 0.01 0.01 0.01 0.01 0.00 0.00 0.00 0.00 0.00 0.00 0.00 0.00 0.00 0.00 0.00 0.01 0.01 0.00 0.00 0.00 0.01 0.01 0.01 0.01 0.02 0.02 0.03 0.03 0.03 0.03 0.04 0.04 0.03 0.02 0.02 0.02 0.03 0.05 0.06 0.06 0.06
0.00 0.01 0.00 0.00 0.00 0.00 0.00 0.00 0.00 0.00 0.00 0.00 0.00 0.00 0.00 0.00 0.00 0.00 0.00 0.00 0.00 0.00 0.00 0.00 0.01 0.00 0.01 0.01 0.03 0.03 0.03 0.03 0.04 0.03 0.03 0.02 0.01 0.02 0.03 0.03 0.05 0.06 0.05
0.00 0.00 0.00 0.00 0.00 0.00 0.00 0.00 0.00 0.00 0.00 0.00 0.00 0.00 0.00 0.00 0.00 0.00 0.00 0.00 0.00 0.00 0.00 0.00 0.01 0.01 0.01 0.01 0.02 0.03 0.03 0.04 0.03 0.03 0.03 0.03 0.02 0.02 0.02 0.03 0.05 0.07 0.07
0.00 0.00 0.00 0.00 0.00 0.00 0.00 0.00 0.00 0.00 0.00 0.00 0.00 0.00 0.00 0.00 0.00 0.00 0.00 0.00 0.00 0.00 0.00 0.00 0.01 0.01 0.01 0.02 0.02 0.02 0.02 0.03 0.03 0.03 0.03 0.03 0.02 0.02 0.02 0.02 0.04 0.06 0.08
0.00 0.00 0.00 0.00 0.00 0.00 0.00 0.00 0.00 0.00 0.00 0.00 0.00 0.00 0.00 0.00 0.00 0.00 0.00 0.00 0.00 0.00 0.00 0.00 0.01 0.01 0.01 0.01 0.02 0.02 0.02 0.02 0.02 0.03 0.03 0.03 0.03 0.03 0.02 0.02 0.02 0.03 0.05
0.00 0.00 0.00 0.00 0.00 0.00 0.00 0.00 0.00 0.00 0.00 0.00 0.00 0.00 0.00 0.00 0.00 0.00 0.00 0.00 0.00 0.00 0.00 0.00 0.00 0.00 0.01 0.01 0.01 0.01 0.02 0.02 0.02 0.02 0.03 0.03 0.03 0.04 0.03 0.02 0.02 0.03 0.04
0.00 0.00 0.00 0.00 0.00 0.00 0.00 0.00 0.00 0.00 0.00 0.00 0.00 0.00 0.00 0.00 0.00 0.00 0.00 0.00 0.00 0.00 0.00 0.00 0.00 0.00 0.01 0.01 0.01 0.01 0.02 0.02 0.02 0.02 0.02 0.02 0.03 0.04 0.04 0.04 0.03 0.03 0.03
0.00 0.00 0.00 0.00 0.00 0.00 0.00 0.00 0.00 0.00 0.00 0.00 0.00 0.00 0.00 0.00 0.00 0.00 0.00 0.00 0.00 0.00 0.00 0.01 0.01 0.01 0.01 0.00 0.01 0.01 0.01 0.02 0.02 0.02 0.02 0.02 0.03 0.03 0.04 0.05 0.06 0.05 0.05
0.00 0.00 0.00 0.00 0.00 0.00 0.00 0.00 0.00 0.00 0.00 0.00 0.00 0.00 0.00 0.00 0.00 0.00 0.00 0.00 0.00 0.00 0.00 0.00 0.01 0.01 0.01 0.00 0.01 0.01 0.02 0.02 0.02 0.02 0.02 0.02 0.02 0.02 0.03 0.03 0.05 0.07 0.07
0.00 0.00 0.00 0.00 0.00 0.00 0.00 0.00 0.00 0.00 0.00 0.00 0.00 0.00 0.00 0.00 0.00 0.00 0.00 0.00 0.00 0.00 0.00 0.01 0.01 0.01 0.01 0.00 0.00 0.00 0.01 0.02 0.03 0.03 0.04 0.03 0.02 0.01 0.01 0.01 0.02 0.04 0.07
0.00 0.00 0.00 0.00 0.00 0.00 0.00 0.00 0.00 0.00 0.00 0.00 0.00 0.00 0.00 0.00 0.00 0.00 0.00 0.00 0.00 0.00 0.01 0.01 0.01 0.01 0.01 0.00 0.00 0.00 0.01 0.02 0.03 0.04 0.04 0.04 0.03 0.03 0.04 0.04 0.02 0.02 0.03
0.00 0.00 0.00 0.00 0.00 0.00 0.00 0.00 0.00 0.00 0.00 0.00 0.00 0.00 0.00 0.00 0.00 0.00 0.00 0.00 0.00 0.01 0.01 0.01 0.01 0.02 0.01 0.00 0.00 0.00 0.01 0.02 0.03 0.04 0.05 0.06 0.07 0.06 0.07 0.08 0.07 0.05 0.04
0.00 0.00 0.00 0.00 0.00 0.00 0.00 0.00 0.00 0.00 0.00 0.00 0.00 0.00 0.00 0.00 0.00 0.00 0.00 0.00 0.01 0.01 0.01 0.01 0.01 0.01 0.02 0.01 0.00 0.00 0.01 0.03 0.04 0.04 0.05 0.06 0.07 0.06 0.03 0.07 0.10 0.09 0.07
0.00 0.00 0.00 0.00 0.00 0.00 0.00 0.00 0.00 0.00 0.00 0.00 0.00 0.00 0.00 0.00 0.00 0.00 0.00 0.00 0.00 0.00 0.01 0.01 0.01 0.01 0.02 0.01 0.00 0.00 0.02 0.04 0.05 0.05 0.05 0.04 0.04 0.03 0.02 0.07 0.11 0.10 0.09
0.00 0.00 0.00 0.00 0.00 0.00 0.00 0.00 0.00 0.00 0.00 0.00 0.00 0.00 0.00 0.00 0.00 0.00 0.00 0.00 0.00 0.01 0.01 0.01 0.01 0.01 0.01 0.01 0.00 0.00 0.01 0.04 0.05 0.05 0.06 0.07 0.03 0.02 0.02 0.05 0.09 0.10 0.09
0.00 0.00 0.00 0.00 0.00 0.00 0.00 0.00 0.00 0.00 0.00 0.00 0.00 0.00 0.00 0.00 0.00 0.00 0.00 0.01 0.01 0.01 0.01 0.01 0.01 0.01 0.01 0.01 0.01 0.00 0.01 0.02 0.05 0.06 0.06 0.07 0.03 0.03 0.04 0.05 0.06 0.05 0.05
0.00 0.00 0.00 0.00 0.00 0.00 0.00 0.00 0.00 0.00 0.00 0.00 0.00 0.00 0.00 0.00 0.00 0.00 0.01 0.01 0.01 0.01 0.00 0.01 0.01 0.01 0.01 0.02 0.01 0.01 0.00 0.01 0.03 0.05 0.04 0.03 0.02 0.03 0.05 0.05 0.06 0.05 0.06
0.00 0.00 0.00 0.00 0.00 0.00 0.00 0.00 0.00 0.00 0.00 0.00 0.00 0.00 0.00 0.00 0.01 0.01 0.01 0.01 0.01 0.01 0.01 0.01 0.01 0.01 0.02 0.02 0.03 0.03 0.02 0.02 0.03 0.04 0.03 0.02 0.02 0.04 0.07 0.06 0.06 0.06 0.08
0.00 0.00 0.00 0.00 0.00 0.00 0.00 0.00 0.00 0.00 0.00 0.00 0.00 0.00 0.00 0.00 0.01 0.01 0.01 0.01 0.01 0.01 0.01 0.01 0.01 0.01 0.01 0.01 0.01 0.01 0.02 0.03 0.04 0.04 0.06 0.07 0.08 0.07 0.09 0.09 0.10 0.08 0.07
0.00 0.00 0.00 0.00 0.00 0.00 0.00 0.00 0.00 0.00 0.00 0.00 0.00 0.00 0.00 0.00 0.00 0.00 0.01 0.01 0.01 0.00 0.00 0.00 0.00 0.00 0.00 0.00 0.00 0.01 0.01 0.01 0.02 0.03 0.07 0.10 0.10 0.10 0.11 0.11 0.10 0.10 0.09
MSLP
1013.28 1013.16 1013.08 1013.03 1013.00 1012.97 1012.94 1012.89 1012.84 1012.80 1012.78 1012.79 1012.82 1012.89 1012.99 1013.11 1013.23 1013.36 1013.47 1013.57 1013.65 1013.72 1013.79 1013.87 1013.96 1014.08 1014.22 1014.37 1014.51 1014.62 1014.68 1014.66 1014.55 1014.34 1014.06 1013.71 1013.34 1012.98 1012.67 1012.44 1012.31 1012.30 1012.41
1013.72 1013.58 1013.47 1013.39 1013.32 1013.23 1013.15 1013.06 1012.98 1012.92 1012.88 1012.87 1012.88 1012.92 1012.97 1013.04 1013.10 1013.17 1013.24 1013.31 1013.38 1013.45 1013.52 1013.61 1013.71 1013.82 1013.92 1014.03 1014.12 1014.18 1014.20 1014.16 1014.05 1013.88 1013.64 1013.35 1013.03 1012.71 1012.40 1012.15 1011.98 1011.89 1011.90
1014.02 1013.91 1013.82 1013.74 1013.66 1013.56 1013.47 1013.37 1013.29 1013.22 1013.18 1013.16 1013.16 1013.16 1013.17 1013.17 1013.17 1013.17 1013.18 1013.20 1013.23 1013.28 1013.34 1013.42 1013.50 1013.57 1013.64 1013.69 1013.72 1013.73 1013.70 1013.65 1013.55 1013.41 1013.23 1013.01 1012.76 1012.50 1012.23 1011.98 1011.76 1011.61 1011.53
1014.22 1014.17 1014.14 1014.10 1014.04 1013.96 1013.88 1013.79 1013.73 1013.68 1013.65 1013.63 1013.61 1013.59 1013.56 1013.51 1013.44 1013.37 1013.30 1013.26 1013.24 1013.25 1013.27 1013.31 1013.35 1013.38 1013.39 1013.38 1013.34 1013.29 1013.22 1013.14 1013.05 1012.96 1012.84 1012.70 1012.53 1012.34 1012.11 1011.88 1011.65 1011.44 1011.27
1014.35 1014.39 1014.43 1014.46 1014.45 1014.41 1014.36 1014.30 1014.25 1014.22 1014.21 1014.20 1014.18 1014.14 1014.06 1013.96 1013.83 1013.70 1013.56 1013.45 1013.37 1013.32 1013.29 1013.29 1013.27 1013.24 1013.18 1013.10 1012.99 1012.88 1012.77 1012.67 1012.59 1012.52 1012.47 1012.40 1012.32 1012.20 1012.03 1011.82 1011.59 1011.34 1011.11
1014.45 1014.60 1014.73 1014.82 1014.87 1014.88 1014.85 1014.82 1014.79 1014.77 1014.76 1014.76 1014.73 1014.68 1014.58 1014.44 1014.26 1014.06 1013.87 1013.70 1013.56 1013.45 1013.37 1013.30 1013.22 1013.13 1013.00 1012.85 1012.68 1012.50 1012.35 1012.23 1012.15 1012.11 1012.11 1012.11 1012.10 1012.05 1011.94 1011.77 1011.54 1011.27 1010.99
1014.56 1014.80 1015.01 1015.17 1015.27 1015.31 1015.31 1015.28 1015.26 1015.24 1015.23 1015.21 1015.18 1015.11 1014.99 1014.82 1014.61 1014.38 1014.14 1013.92 1013.72 1013.57 1013.43 1013.30 1013.17 1013.01 1012.83 1012.61 1012.38 1012.16 1011.97 1011.83 1011.75 1011.73 1011.76 1011.82 1011.87 1011.87 1011.82 1011.68 1011.47 1011.19 1010.88
1014.68 1014.99 1015.27 1015.48 1015.61 1015.67 1015.67 1015.64 1015.60 1015.56 1015.53 1015.49 1015.44 1015.36 1015.23 1015.04 1014.82 1014.56 1014.30 1014.05 1013.82 1013.62 1013.44 1013.27 1013.09 1012.88 1012.65 1012.39 1012.11 1011.85 1011.63 1011.47 1011.39 1011.38 1011.43 1011.52 1011.60 1011.65 1011.64 1011.54 1011.35 1011.08 1010.76
1014.78 1015.15 1015.47 1015.72 1015.86 1015.92 1015.91 1015.86 1015.79 1015.71 1015.65 1015.59 1015.52 1015.41 1015.27 1015.08 1014.85 1014.59 1014.32 1014.06 1013.81 1013.59 1013.38 1013.18 1012.97 1012.73 1012.46 1012.17 1011.87 1011.58 1011.34 1011.16 1011.07 1011.06 1011.11 1011.21 1011.31 1011.38 1011.39 1011.32 1011.16 1010.91 1010.60
1014.85 1015.24 1015.59 1015.85 1016.00 1016.05 1016.02 1015.94 1015.84 1015.73 1015.63 1015.53 1015.44 1015.32 1015.17 1014.98 1014.75 1014.49 1014.23 1013.96 1013.72 1013.48 1013.26 1013.05 1012.82 1012.56 1012.28 1011.98 1011.66 1011.36 1011.10 1010.91 1010.79 1010.76 1010.80 1010.89 1010.99 1011.06 1011.09 1011.04 1010.90 1010.68 1010.41
1014.84 1015.25 1015.61 1015.87 1016.02 1016.07 1016.02 1015.92 1015.79 1015.65 1015.52 1015.39 1015.27 1015.13 1014.97 1014.78 1014.56 1014.31 1014.05 1013.80 1013.56 1013.33 1013.11 1012.89 1012.66 1012.40 1012.12 1011.81 1011.49 1011.18 1010.91 1010.70 1010.56 1010.49 1010.50 1010.55 1010.63 1010.70 1010.72 1010.69 1010.58 1010.40 1010.17
1014.75 1015.17 1015.52 1015.79 1015.94 1015.99 1015.94 1015.83 1015.69 1015.53 1015.38 1015.24 1015.09 1014.94 1014.77 1014.57 1014.35 1014.10 1013.85 1013.61 1013.37 1013.15 1012.93 1012.72 1012.50 1012.25 1011.97 1011.67 1011.35 1011.04 1010.75 1010.51 1010.34 1010.23 1010.20 1010.21 1010.25 1010.29 1010.31 1010.28 1010.21 1010.08 1009.90
1014.59 1015.00 1015.36 1015.62 1015.79 1015.85 1015.82 1015.72 1015.59 1015.44 1015.28 1015.12 1014.96 1014.79 1014.60 1014.38 1014.15 1013.90 1013.65 1013.41 1013.17 1012.96 1012.75 1012.55 1012.34 1012.10 1011.84 1011.54 1011.23 1010.91 1010.60 1010.34 1010.12 1009.97 1009.88 1009.84 1009.84 1009.85 1009.86 1009.84 1009.80 1009.72 1009.60
1014.39 1014.79 1015.14 1015.41 1015.59 1015.68 1015.68 1015.61 1015.51 1015.37 1015.22 1015.05 1014.88 1014.68 1014.47 1014.23 1013.98 1013.71 1013.45 1013.20 1012.96 1012.75 1012.55 1012.36 1012.16 1011.93 1011.68 1011.39 1011.08 1010.75 1010.43 1010.13 1009.88 1009.68 1009.53 1009.44 1009.40 1009.39 1009.38 1009.38 1009.37 1009.34 1009.28
1014.19 1014.57 1014.92 1015.19 1015.39 1015.50 1015.54 1015.51 1015.44 1015.33 1015.19 1015.02 1014.83 1014.61 1014.36 1014.09 1013.80 1013.51 1013.23 1012.96 1012.72 1012.50 1012.31 1012.12 1011.93 1011.72 1011.48 1011.20 1010.88 1010.55 1010.21 1009.88 1009.59 1009.34 1009.15 1009.02 1008.95 1008.91 1008.91 1008.92 1008.94 1008.96 1008.96
1014.02 1014.38 1014.71 1014.98 1015.18 1015.32 1015.40 1015.41 1015.37 1015.29 1015.16 1014.99 1014.78 1014.53 1014.25 1013.93 1013.60 1013.27 1012.96 1012.67 1012.42 1012.20 1012.01 1011.83 1011.65 1011.44 1011.21 1010.93 1010.62 1010.27 1009.91 1009.56 1009.24 1008.97 1008.75 1008.59 1008.50 1008.46 1008.46 1008.50 1008.55 1008.60 1008.66
1013.89 1014.22 1014.53 1014.78 1014.99 1015.15 1015.25 1015.29 1015.28 1015.22 1015.10 1014.93 1014.70 1014.41 1014.09 1013.73 1013.35 1012.99 1012.64 1012.33 1012.06 1011.84 1011.65 1011.48 1011.30 1011.11 1010.88 1010.60 1010.28 1009.93 1009.56 1009.20 1008.86 1008.57 1008.34 1008.18 1008.08 1008.05 1008.07 1008.13 1008.21 1008.30 1008.39
1013.80 1014.10 1014.38 1014.61 1014.81 1014.97 1015.08 1015.15 1015.16 1015.11 1014.99 1014.81 1014.56 1014.24 1013.88 1013.47 1013.06 1012.66 1012.28 1011.95 1011.68 1011.45 1011.26 1011.09 1010.92 1010.74 1010.51 1010.24 1009.92 1009.57 1009.20 1008.83 1008.49 1008.20 1007.97 1007.82 1007.74 1007.73 1007.77 1007.85 1007.96 1008.07 1008.18
1013.72 1013.99 1014.24 1014.45 1014.63 1014.78 1014.90 1014.97 1014.99 1014.94 1014.83 1014.63 1014.36 1014.02 1013.63 1013.19 1012.75 1012.32 1011.93 1011.59 1011.30 1011.07 1010.89 1010.73 1010.57 1010.39 1010.16 1009.89 1009.58 1009.23 1008.86 1008.49 1008.16 1007.88 1007.67 1007.54 1007.49 1007.50 1007.57 1007.68 1007.80 1007.93 1008.05
1013.62 1013.87 1014.09 1014.28 1014.44 1014.58 1014.69 1014.77 1014.79 1014.75 1014.63 1014.43 1014.15 1013.79 1013.38 1012.93 1012.47 1012.02 1011.62 1011.28 1011.00 1010.77 1010.59 1010.44 1010.29 1010.11 1009.89 1009.62 1009.31 1008.96 1008.59 1008.24 1007.92 1007.66 1007.47 1007.37 1007.34 1007.38 1007.47 1007.59 1007.73 1007.86 1007.97
1013.46 1013.71 1013.91 1014.09 1014.24 1014.37 1014.48 1014.55 1014.58 1014.54 1014.43 1014.23 1013.94 1013.58 1013.16 1012.71 1012.24 1011.80 1011.40 1011.06 1010.79 1010.57 1010.41 1010.26 1010.12 1009.94 1009.73 1009.47 1009.16 1008.81 1008.45 1008.10 1007.79 1007.54 1007.37 1007.29 1007.28 1007.33 1007.44 1007.57 1007.71 1007.84 1007.94
1013.25 1013.50 1013.71 1013.88 1014.03 1014.16 1014.27 1014.34 1014.37 1014.34 1014.23 1014.04 1013.76 1013.41 1013.00 1012.55 1012.09 1011.66 1011.27 1010.94 1010.68 1010.48 1010.33 1010.19 1010.06 1009.89 1009.69 1009.43 1009.12 1008.78 1008.42 1008.08 1007.77 1007.53 1007.36 1007.28 1007.27 1007.33 1007.44 1007.57 1007.70 1007.81 1007.90
1012.99 1013.26 1013.48 1013.66 1013.81 1013.95 1014.06 1014.14 1014.17 1014.15 1014.05 1013.87 1013.61 1013.27 1012.87 1012.44 1011.99 1011.58 1011.20 1010.89 1010.65 1010.46 1010.32 1010.20 1010.08 1009.93 1009.73 1009.48 1009.18 1008.84 1008.49 1008.14 1007.83 1007.58 1007.40 1007.30 1007.28 1007.33 1007.42 1007.53 1007.64 1007.74 1007.81
1012.70 1012.99 1013.23 1013.42 1013.59 1013.73 1013.85 1013.94 1013.98 1013.96 1013.88 1013.71 1013.46 1013.13 1012.75 1012.33 1011.90 1011.50 1011.15 1010.85 1010.62 1010.45 1010.33 1010.23 1010.12 1009.99 1009.81 1009.57 1009.28 1008.95 1008.59 1008.24 1007.91 1007.64 1007.44 1007.31 1007.26 1007.26 1007.32 1007.40 1007.49 1007.57 1007.63
1012.39 1012.70 1012.96 1013.17 1013.34 1013.49 1013.62 1013.71 1013.76 1013.75 1013.67 1013.51 1013.26 1012.95 1012.58 1012.18 1011.77 1011.38 1011.04 1010.76 1010.54 1010.39 1010.28 1010.19 1010.11 1009.99 1009.84 1009.62 1009.35 1009.03 1008.67 1008.32 1007.98 1007.68 1007.44 1007.26 1007.16 1007.12 1007.13 1007.17 1007.22 1007.28 1007.33
1012.08 1012.40 1012.66 1012.88 1013.06 1013.21 1013.34 1013.43 1013.48 1013.47 1013.39 1013.23 1013.00 1012.69 1012.33 1011.93 1011.53 1011.16 1010.82 1010.55 1010.34 1010.20 1010.10 1010.04 1009.97 1009.88 1009.75 1009.57 1009.32 1009.02 1008.67 1008.32 1007.96 1007.64 1007.36 1007.14 1006.98 1006.89 1006.84 1006.84 1006.85 1006.89 1006.92
Thickness
5744 5744 5743 5742 5740 5738 5735 5733 5731 5729 5727 5725 5723 5721 5720 5718 5717 5715 5711 5709 5708 5707 5706 5707 5705 5704 5704 5703 5704 5703 5703 5703 5704 5703 5706 5712 5717 5719 5720 5722 5724 5728 5728
5736 5736 5736 5736 5734 5731 5728 5727 5724 5723 5721 5718 5716 5714 5712 5712 5711 5708 5704 5702 5701 5699 5701 5699 5699 5699 5697 5696 5697 5695 5696 5698 5699 5698 5697 5700 5709 5714 5721 5722 5722 5724 5726
5731 5731 5731 5730 5730 5726 5723 5722 5718 5716 5713 5712 5711 5709 5706 5704 5703 5700 5698 5695 5693 5693 5691 5691 5691 5691 5691 5692 5689 5689 5689 5690 5693 5694 5692 5692 5698 5707 5714 5717 5719 5719 5721
5730 5729 5727 5725 5724 5722 5721 5717 5712 5709 5707 5705 5703 5700 5697 5695 5694 5692 5691 5688 5687 5685 5684 5683 5683 5682 5684 5683 5683 5685 5683 5681 5683 5686 5688 5690 5694 5692 5699 5707 5712 5713 5713
5730 5727 5726 5723 5721 5719 5716 5712 5706 5702 5700 5697 5694 5692 5690 5689 5689 5686 5683 5680 5681 5678 5677 5676 5675 5674 5675 5675 5673 5673 5674 5676 5677 5679 5681 5683 5684 5687 5687 5693 5700 5705 5709
5728 5725 5724 5720 5717 5715 5711 5707 5701 5696 5693 5690 5688 5684 5681 5678 5676 5674 5673 5673 5674 5672 5671 5668 5666 5665 5666 5666 5665 5665 5666 5667 5669 5670 5674 5675 5677 5680 5684 5685 5688 5693 5701
5727 5723 5719 5716 5712 5708 5704 5701 5695 5690 5688 5685 5681 5678 5674 5671 5669 5667 5667 5664 5665 5665 5662 5660 5657 5657 5657 5657 5657 5657 5659 5660 5659 5660 5664 5668 5672 5675 5677 5678 5682 5685 5692
5726 5721 5718 5713 5709 5704 5699 5695 5690 5685 5681 5678 5674 5671 5667 5667 5666 5662 5658 5657 5656 5655 5652 5649 5648 5648 5648 5649 5650 5651 5652 5652 5652 5653 5655 5658 5663 5667 5668 5670 5672 5675 5681
5723 5719 5715 5711 5706 5701 5695 5691 5685 5680 5676 5672 5668 5665 5662 5659 5656 5653 5651 5652 5648 5646 5644 5641 5639 5639 5639 5639 5639 5642 5642 5644 5644 5646 5648 5648 5654 5657 5660 5663 5665 5665 5668
5721 5716 5712 5706 5702 5697 5692 5687 5681 5676 5672 5668 5665 5663 5658 5654 5650 5647 5643 5640 5637 5635 5633 5632 5630 5630 5630 5630 5630 5632 5635 5635 5635 5636 5638 5639 5644 5647 5650 5654 5657 5660 5661
5720 5715 5709 5704 5698 5694 5689 5683 5679 5674 5669 5665 5660 5656 5653 5649 5645 5641 5638 5634 5630 5627 5625 5623 5622 5621 5621 5622 5622 5623 5624 5625 5626 5628 5630 5631 5632 5636 5640 5644 5647 5651 5654
5719 5714 5707 5701 5696 5690 5685 5680 5675 5671 5666 5661 5656 5652 5648 5643 5639 5636 5631 5627 5623 5620 5618 5616 5614 5613 5613 5613 5612 5612 5615 5615 5616 5618 5619 5621 5624 5626 5628 5633 5638 5642 5645
5716 5710 5704 5698 5692 5687 5681 5676 5671 5667 5662 5657 5652 5648 5643 5638 5633 5629 5625 5621 5617 5614 5611 5608 5606 5605 5604 5604 5604 5603 5604 5605 5606 5607 5609 5611 5613 5616 5620 5623 5628 5633 5637
5712 5707 5700 5694 5688 5683 5677 5673 5668 5663 5658 5652 5648 5643 5637 5632 5628 5624 5619 5615 5611 5607 5604 5602 5599 5597 5596 5595 5595 5594 5594 5594 5596 5597 5598 5601 5603 5605 5608 5612 5616 5621 5625
5710 5704 5698 5692 5686 5680 5674 5669 5664 5659 5653 5647 5643 5638 5634 5629 5624 5619 5614 5610 5606 5602 5599 5595 5593 5590 5589 5588 5586 5584 5585 5585 5586 5587 5588 5590 5592 5594 5596 5601 5607 5610 5614
5710 5704 5697 5690 5683 5677 5671 5666 5660 5654 5649 5644 5639 5635 5629 5625 5620 5615 5610 5605 5601 5597 5593 5589 5586 5584 5583 5578 5572 5568 5572 5574 5576 5577 5579 5581 5582 5583 5583 5586 5590 5595 5602
5709 5702 5695 5688 5681 5675 5668 5662 5658 5652 5646 5641 5636 5631 5626 5620 5616 5611 5606 5601 5596 5592 5588 5584 5581 5578 5575 5569 5563 5559 5559 5564 5567 5568 5569 5571 5578 5576 5578 5579 5580 5584 5589
5707 5701 5694 5687 5680 5674 5667 5660 5655 5649 5643 5638 5633 5628 5622 5617 5612 5607 5602 5597 5593 5588 5584 5579 5576 5573 5570 5563 5557 5553 5553 5558 5560 5560 5561 5561 5564 5566 5567 5570 5575 5580 5585
5707 5699 5693 5686 5678 5671 5665 5658 5652 5647 5642 5636 5630 5625 5619 5613 5608 5603 5598 5593 5588 5584 5580 5577 5573 5569 5565 5559 5552 5545 5551 5554 5554 5554 5554 5554 5555 5554 5554 5558 5564 5570 5576
5705 5697 5691 5684 5675 5668 5661 5654 5650 5645 5639 5633 5627 5621 5615 5610 5604 5599 5594 5590 5584 5580 5576 5573 5569 5565 5561 5555 5548 5541 5546 5548 5549 5548 5547 5544 5544 5543 5543 5548 5554 5560 5567
5701 5694 5687 5680 5673 5666 5658 5652 5647 5642 5636 5630 5624 5618 5613 5608 5603 5597 5592 5586 5582 5578 5573 5569 5566 5563 5557 5552 5545 5538 5539 5540 5540 5541 5541 5539 5534 5532 5533 5536 5544 5550 5555
5699 5692 5684 5677 5671 5664 5656 5649 5644 5639 5633 5627 5622 5617 5611 5607 5603 5596 5590 5585 5579 5575 5572 5568 5565 5562 5558 5550 5544 5537 5531 5529 5531 5532 5532 5530 5526 5524 5524 5528 5534 5538 5543
5697 5690 5683 5675 5669 5662 5654 5647 5643 5637 5630 5625 5619 5615 5610 5605 5600 5594 5589 5584 5579 5575 5572 5568 5564 5560 5556 5550 5541 5535 5530 5526 5525 5527 5524 5521 5518 5518 5521 5522 5526 5530 5539
5694 5687 5680 5673 5667 5661 5654 5647 5640 5634 5627 5622 5617 5613 5608 5604 5599 5592 5588 5583 5578 5573 5568 5565 5561 5558 5554 5549 5542 5537 5532 5526 5524 5523 5521 5517 5515 5515 5518 5521 5524 5529 5536
5691 5684 5677 5670 5665 5659 5652 5646 5639 5631 5624 5619 5615 5611 5608 5603 5595 5592 5586 5580 5575 5568 5560 5559 5556 5553 5550 5542 5528 5524 5526 5524 5521 5519 5520 5521 5521 5521 5522 5524 5527 5530 5533
5688 5681 5675 5669 5663 5657 5650 5644 5637 5629 5622 5617 5614 5610 5607 5601 5596 5591 5587 5580 5572 5564 5556 5549 5543 5546 5540 5532 5527 5522 5518 5515 5513 5514 5521 5523 5523 5524 5523 5524 5526 5528 5531